• MPC Preparation (Info)

  • MPEC 2017-F191: 2017 FO102

    The following Minor Planet Electronic Circular may be linked-to from your own Web pages, but must not otherwise be redistributed electronically.

    A form allowing access to any MPEC is at the bottom of this page.


    Read MPEC 2017-F190 Read MPEC 2017-F192


    M.P.E.C. 2017-F191                               Issued 2017 Mar. 29, 15:41 UT
    
         The Minor Planet Electronic Circulars contain information on unusual
             minor planets and routine data on comets.  They are published
        on behalf of Division F of the International Astronomical Union by the
              Minor Planet Center, Smithsonian Astrophysical Observatory,
                              Cambridge, MA 02138, U.S.A.
    
                 Prepared using the Tamkin Foundation Computer Network
    
                                  MPC@CFA.HARVARD.EDU
                URL https://www.minorplanetcenter.net/    ISSN 1523-6714
    
                                      2017 FO102
    
    Observations:
         K17FA2O* C2017 03 27.45841 12 46 09.011-03 45 29.96         21.7 wLEF191F51
         K17FA2O  C2017 03 27.47084 12 46 09.387-03 46 17.44         21.8 wLEF191F51
         K17FA2O  C2017 03 27.48326 12 46 09.741-03 47 04.55         22.0 wLEF191F51
         K17FA2O  C2017 03 27.49566 12 46 10.134-03 47 51.60         21.8 wLEF191F51
         K17FA2O |C2017 03 28.22555 12 46 54.09 -04 32 44.2          22.0 VuEF191807
         K17FA2O |C2017 03 28.23495 12 46 54.36 -04 33 19.1          22.0 VuEF191807
         K17FA2O |C2017 03 28.24405 12 46 54.68 -04 33 53.2          22.1 VuEF191807
         K17FA2O _C2017 03 28.48023312 47 08.246-04 49 40.24         21.7 GUEF191568
         K17FA2O _C2017 03 28.48145012 47 08.278-04 49 44.74         21.6 GUEF191568
         K17FA2O _C2017 03 28.48266312 47 08.313-04 49 49.29         21.6 GUEF191568
         K17FA2O KC2017 03 29.57839012 48 10.65 -05 55 40.2          21.0 RtEF191474
         K17FA2O KC2017 03 29.58074812 48 10.72 -05 55 48.5          21.5 RtEF191474
         K17FA2O KC2017 03 29.58310712 48 10.81 -05 55 57.5          21.1 RtEF191474
         K17FA2O KC2017 03 29.58546512 48 10.89 -05 56 05.8          21.5 RtEF191474
    
    Observer details:
    474 Mount John Observatory, Lake Tekapo.  Observers A. C. Gilmore,
        P. M. Kilmartin.  Measurer P. M. Kilmartin.  1.0-m f/7.7 reflector + CCD.
    568 Mauna Kea.  Observers R. J. Wainscoat, C. Wipper.  Measurers M. Micheli,
        R. J. Wainscoat.  3.6-m Canada-France-Hawaii Telescope + CCD.
    807 Cerro Tololo.  Observers T. Linder, R. Holmes.  0.61-m f/6.5 astrograph
        + CCD.
    F51 Pan-STARRS 1, Haleakala.  Observers B. Gibson, T. Goggia, S. Kahale,
        T. Lowe, A. Schultz, M. Willman.  Measurers K. Chambers, S. Chastel,
        L. Denneau, H. Flewelling, M. Huber, E. Lilly, E. Magnier, R. Wainscoat,
        C. Waters, R. Weryk.  1.8-m Ritchey-Chretien + CCD.
    
    Orbital elements:
    2017 FO102                                               Earth MOID = 0.1060 AU
    Epoch 2017 Feb. 16.0 TT = JDT 2457800.5                 MPC
    M 350.47792              (2000.0)            P               Q
    n   0.47164465     Peri.  159.85067     -0.97926241     -0.20213494
    a   1.6345296      Node     8.52214     +0.17095068     -0.86060621
    e   0.3291628      Incl.    5.28892     +0.10872440     -0.46743815
    P   2.09           H   25.9           G   0.15           U   7
    Residuals in seconds of arc
    170327 F51  0.1-  0.0     170328 807  0.4-  0.2+    170329 474  0.0   0.0
    170327 F51  0.1+  0.1-    170328 807  0.2+  0.1+    170329 474  0.1-  0.2+
    170327 F51  0.1-  0.0     170328 568  0.1+  0.1-    170329 474  0.1+  0.2-
    170327 F51  0.2+  0.1+    170328 568  0.1+  0.0     170329 474  0.1+  0.0
    170328 807  0.2-  0.1-    170328 568  0.1+  0.1-
    
    Ephemeris:
    2017 FO102               a,e,i = 1.63, 0.33, 5                   q = 1.0965
    Date    TT    R. A. (2000) Decl.     Delta      r     Elong.  Phase     V
    2017 02 27    12 00 36.3 +26 29 00   0.1207  1.0999   153.7    23.5    22.6
    ...
    2017 03 14    12 29 00.3 +11 37 54   0.1075  1.0978   164.0    14.5    22.1
    ...
    2017 03 22    12 40 09.3 +02 18 33   0.1090  1.1041   170.7     8.4    21.9
    ...
    2017 03 28    12 46 41.2 -04 19 07   0.1144  1.1121   174.8     4.7    21.8
    2017 03 29    12 47 38.9 -05 21 10   0.1157  1.1137   175.2     4.3    21.8
    2017 03 30    12 48 34.8 -06 21 45   0.1170  1.1154   175.5     4.1    21.8
    ...
    2017 04 05    12 53 40.4 -11 50 58   0.1271  1.1269   174.1     5.2    22.1
    ...
    2017 04 13    12 59 38.6 -17 32 17   0.1456  1.1460   169.4     9.3    22.6
    ...
    2017 04 28    13 10 37.0 -23 47 37   0.1945  1.1921   160.7    16.2    23.6
    
    A. U. Tomatic                (C) Copyright 2017 MPC           M.P.E.C. 2017-F191
    

    Read MPEC 2017-F190 Read MPEC 2017-F192


    MPEC number:

    Enter an MPEC number in one of the following forms:

    • 1997-B01 (the full form)
    • J97B01 (the packed version of the full form)
    • B01 (the abbreviated form)